Time,TemperatureF,DewpointF,PressureIn,WindDirection,WindDirectionDegrees,WindSpeedMPH,WindSpeedGustMPH,Humidity,HourlyPrecipIn,Conditions,Clouds,dailyrainin,SoftwareType,DateUTC
2013-02-25 00:05:00,22.3,3.2,23.39,ESE,102,5.4,5.4,43,0.00,,---,0.00,VWS V14.00,2013-02-25 07:05:00,
2013-02-25 00:10:00,22.3,3.2,23.39,NNE,32,2.7,3.6,43,0.00,,---,0.00,VWS V14.00,2013-02-25 07:10:00,
2013-02-25 00:15:00,22.3,3.2,23.39,East,91,2.7,5.4,43,0.00,,---,0.00,VWS V14.00,2013-02-25 07:15:00,
2013-02-25 00:20:00,22.1,3.0,23.39,NE,54,2.2,8.1,43,0.00,,---,0.00,VWS V14.00,2013-02-25 07:20:00,
2013-02-25 00:25:00,22.6,3.5,23.39,East,97,4.0,5.4,43,0.00,,---,0.00,VWS V14.00,2013-02-25 07:25:00,
2013-02-25 00:30:00,22.6,3.5,23.39,ENE,76,4.0,4.0,43,0.00,,---,0.00,VWS V14.00,2013-02-25 07:30:00,
2013-02-25 00:35:00,22.6,3.5,23.39,East,95,3.6,4.0,43,0.00,,---,0.00,VWS V14.00,2013-02-25 07:35:00,
2013-02-25 00:40:00,22.8,3.7,23.39,North,9,0.0,4.0,43,0.00,,---,0.00,VWS V14.00,2013-02-25 07:40:00,
2013-02-25 00:45:00,22.8,3.7,23.39,NNE,19,2.2,3.6,43,0.00,,---,0.00,VWS V14.00,2013-02-25 07:45:00,
2013-02-25 00:50:00,23.0,3.8,23.39,ENE,68,0.0,0.0,43,0.00,,---,0.00,VWS V14.00,2013-02-25 07:50:00,
2013-02-25 00:55:00,22.8,3.7,23.39,East,82,0.0,2.7,43,0.00,,---,0.00,VWS V14.00,2013-02-25 07:55:00,
2013-02-25 01:00:00,22.8,3.7,23.39,NNE,26,6.3,6.3,43,0.00,,---,0.00,VWS V14.00,2013-02-25 08:00:00,
2013-02-25 01:05:00,23.0,3.8,23.39,ENE,62,4.9,4.9,43,0.00,,---,0.00,VWS V14.00,2013-02-25 08:05:00,
2013-02-25 01:10:00,23.0,3.8,23.39,NNE,12,2.2,2.2,43,0.00,,---,0.00,VWS V14.00,2013-02-25 08:10:00,
2013-02-25 01:15:00,23.0,3.8,23.39,North,350,3.6,6.3,43,0.00,,---,0.00,VWS V14.00,2013-02-25 08:15:00,
2013-02-25 01:20:00,22.8,3.7,23.39,East,100,3.1,3.1,43,0.00,,---,0.00,VWS V14.00,2013-02-25 08:20:00,
2013-02-25 01:25:00,22.6,3.5,23.39,NNE,33,0.0,0.0,43,0.00,,---,0.00,VWS V14.00,2013-02-25 08:25:00,
2013-02-25 01:30:00,22.1,3.0,23.39,SE,124,0.0,0.0,43,0.00,,---,0.00,VWS V14.00,2013-02-25 08:30:00,
2013-02-25 01:35:00,21.7,2.7,23.39,SE,141,6.3,6.3,43,0.00,,---,0.00,VWS V14.00,2013-02-25 08:35:00,
2013-02-25 01:40:00,21.7,2.7,23.39,SE,141,4.0,5.8,43,0.00,,---,0.00,VWS V14.00,2013-02-25 08:40:00,
2013-02-25 01:45:00,21.7,2.7,23.39,SE,138,4.0,4.0,43,0.00,,---,0.00,VWS V14.00,2013-02-25 08:45:00,
2013-02-25 01:50:00,21.9,2.9,23.39,East,94,5.8,5.8,43,0.00,,---,0.00,VWS V14.00,2013-02-25 08:50:00,
2013-02-25 01:55:00,22.3,3.2,23.39,NNE,19,2.7,7.6,43,0.00,,---,0.00,VWS V14.00,2013-02-25 08:55:00,
2013-02-25 02:01:00,22.5,3.4,23.39,NE,46,8.7,8.7,43,0.00,,---,0.00,VWS V14.00,2013-02-25 09:01:00,
2013-02-25 02:06:00,22.8,3.7,23.39,SE,126,8.7,8.7,43,0.00,,---,0.00,VWS V14.00,2013-02-25 09:06:00,
2013-02-25 02:11:00,23.0,3.8,23.39,ESE,118,7.2,7.2,43,0.00,,---,0.00,VWS V14.00,2013-02-25 09:11:00,
2013-02-25 02:16:00,22.8,3.7,23.39,NE,48,3.1,7.2,43,0.00,,---,0.00,VWS V14.00,2013-02-25 09:16:00,
2013-02-25 02:21:00,22.8,3.7,23.39,ESE,110,3.1,7.6,43,0.00,,---,0.00,VWS V14.00,2013-02-25 09:21:00,
2013-02-25 02:26:00,22.6,3.5,23.39,NNE,25,5.8,6.7,43,0.00,,---,0.00,VWS V14.00,2013-02-25 09:26:00,
2013-02-25 02:31:00,22.8,3.7,23.39,ESE,110,4.0,4.0,43,0.00,,---,0.00,VWS V14.00,2013-02-25 09:31:00,
2013-02-25 02:36:00,23.0,3.8,23.39,East,99,13.2,13.2,43,0.00,,---,0.00,VWS V14.00,2013-02-25 09:36:00,
2013-02-25 02:41:00,23.4,3.7,23.39,East,86,3.1,3.1,42,0.00,,---,0.00,VWS V14.00,2013-02-25 09:41:00,
2013-02-25 02:46:00,23.0,3.8,23.39,NNE,19,2.7,3.6,43,0.00,,---,0.00,VWS V14.00,2013-02-25 09:46:00,
2013-02-25 02:51:00,22.8,3.7,23.39,NE,42,3.1,3.1,43,0.00,,---,0.00,VWS V14.00,2013-02-25 09:51:00,
2013-02-25 02:56:00,22.5,3.4,23.39,North,3,2.7,2.7,43,0.00,,---,0.00,VWS V14.00,2013-02-25 09:56:00,
2013-02-25 03:01:00,22.5,3.4,23.39,ENE,69,2.7,6.3,43,0.00,,---,0.00,VWS V14.00,2013-02-25 10:01:00,
2013-02-25 03:06:00,22.5,3.4,23.39,NNW,341,3.6,4.9,43,0.00,,---,0.00,VWS V14.00,2013-02-25 10:06:00,
2013-02-25 03:11:00,22.3,3.2,23.39,East,84,3.6,4.0,43,0.00,,---,0.00,VWS V14.00,2013-02-25 10:11:00,
2013-02-25 03:16:00,22.3,3.2,23.39,East,97,5.4,5.8,43,0.00,,---,0.00,VWS V14.00,2013-02-25 10:16:00,
2013-02-25 03:21:00,22.5,3.4,23.39,East,92,6.3,6.3,43,0.00,,---,0.00,VWS V14.00,2013-02-25 10:21:00,
2013-02-25 03:26:00,22.6,3.5,23.39,SE,131,6.3,7.6,43,0.00,,---,0.00,VWS V14.00,2013-02-25 10:26:00,
2013-02-25 03:31:00,22.6,3.5,23.39,East,87,3.6,5.4,43,0.00,,---,0.00,VWS V14.00,2013-02-25 10:31:00,
2013-02-25 03:37:00,22.5,3.4,23.39,South,178,5.8,5.8,43,0.00,,---,0.00,VWS V14.00,2013-02-25 10:37:00,
2013-02-25 03:42:00,22.5,3.4,23.39,East,87,6.3,6.3,43,0.00,,---,0.00,VWS V14.00,2013-02-25 10:42:00,
2013-02-25 03:47:00,22.5,3.4,23.39,West,261,4.0,4.0,43,0.00,,---,0.00,VWS V14.00,2013-02-25 10:47:00,
2013-02-25 03:52:00,21.9,2.9,23.39,West,262,3.6,3.6,43,0.00,,---,0.00,VWS V14.00,2013-02-25 10:52:00,
2013-02-25 03:57:00,21.6,2.5,23.42,NNW,344,2.2,3.1,43,0.00,,---,0.00,VWS V14.00,2013-02-25 10:57:00,
2013-02-25 04:02:00,21.0,2.0,23.42,North,0,2.7,2.7,43,0.00,,---,0.00,VWS V14.00,2013-02-25 11:02:00,
2013-02-25 04:07:00,20.5,1.5,23.42,North,353,2.2,2.2,43,0.00,,---,0.00,VWS V14.00,2013-02-25 11:07:00,
2013-02-25 04:12:00,20.1,1.2,23.42,North,350,6.3,6.3,43,0.00,,---,0.00,VWS V14.00,2013-02-25 11:12:00,
2013-02-25 04:17:00,19.8,0.9,23.42,NNW,344,0.0,0.0,43,0.00,,---,0.00,VWS V14.00,2013-02-25 11:17:00,
2013-02-25 04:22:00,19.4,0.6,23.42,NW,324,4.9,4.9,43,0.00,,---,0.00,VWS V14.00,2013-02-25 11:22:00,
2013-02-25 04:27:00,19.0,0.2,23.42,NNE,32,0.0,0.0,43,0.00,,---,0.00,VWS V14.00,2013-02-25 11:27:00,
2013-02-25 04:32:00,18.5,-0.3,23.42,NNE,32,0.0,0.0,43,0.00,,---,0.00,VWS V14.00,2013-02-25 11:32:00,
2013-02-25 04:37:00,18.0,-0.8,23.42,NNE,32,0.0,0.0,43,0.00,,---,0.00,VWS V14.00,2013-02-25 11:37:00,
2013-02-25 04:42:00,17.4,-0.8,23.42,NNE,32,0.0,0.0,44,0.00,,---,0.00,VWS V14.00,2013-02-25 11:42:00,
2013-02-25 04:47:00,16.9,-1.2,23.42,NNE,32,0.0,0.0,44,0.00,,---,0.00,VWS V14.00,2013-02-25 11:47:00,
2013-02-25 04:52:00,16.3,-1.7,23.42,NNE,32,0.0,0.0,44,0.00,,---,0.00,VWS V14.00,2013-02-25 11:52:00,
2013-02-25 04:57:00,16.0,-2.1,23.42,NNE,32,0.0,0.0,44,0.00,,---,0.00,VWS V14.00,2013-02-25 11:57:00,
2013-02-25 05:02:00,15.4,-2.6,23.42,NNE,32,0.0,0.0,44,0.00,,---,0.00,VWS V14.00,2013-02-25 12:02:00,
2013-02-25 05:07:00,15.1,-2.9,23.42,NNE,32,0.0,0.0,44,0.00,,---,0.00,VWS V14.00,2013-02-25 12:07:00,
2013-02-25 05:13:00,14.7,-3.2,23.45,NNE,32,0.0,0.0,44,0.00,,---,0.00,VWS V14.00,2013-02-25 12:13:00,
2013-02-25 05:18:00,14.4,-3.6,23.45,NNE,32,0.0,0.0,44,0.00,,---,0.00,VWS V14.00,2013-02-25 12:18:00,
2013-02-25 05:23:00,13.8,-3.6,23.45,NNE,32,0.0,0.0,45,0.00,,---,0.00,VWS V14.00,2013-02-25 12:23:00,
2013-02-25 05:28:00,13.6,-3.8,23.45,NNE,32,0.0,0.0,45,0.00,,---,0.00,VWS V14.00,2013-02-25 12:28:00,
2013-02-25 05:33:00,13.5,-3.9,23.45,NNE,32,0.0,0.0,45,0.00,,---,0.00,VWS V14.00,2013-02-25 12:33:00,
2013-02-25 05:38:00,12.9,-4.4,23.45,NNE,32,0.0,0.0,45,0.00,,---,0.00,VWS V14.00,2013-02-25 12:38:00,
2013-02-25 05:43:00,12.7,-4.6,23.45,NNE,32,0.0,0.0,45,0.00,,---,0.00,VWS V14.00,2013-02-25 12:43:00,
2013-02-25 05:48:00,12.4,-4.9,23.45,NNE,32,0.0,0.0,45,0.00,,---,0.00,VWS V14.00,2013-02-25 12:48:00,
2013-02-25 05:53:00,12.0,-5.2,23.45,NNE,32,0.0,0.0,45,0.00,,---,0.00,VWS V14.00,2013-02-25 12:53:00,
2013-02-25 05:58:00,12.0,-5.2,23.45,NNE,32,0.0,0.0,45,0.00,,---,0.00,VWS V14.00,2013-02-25 12:58:00,
2013-02-25 06:04:00,11.8,-5.4,23.45,NNE,32,0.0,0.0,45,0.00,,---,0.00,VWS V14.00,2013-02-25 13:04:00,
2013-02-25 06:09:00,11.7,-5.6,23.45,NNE,32,0.0,0.0,45,0.00,,---,0.00,VWS V14.00,2013-02-25 13:09:00,
2013-02-25 06:14:00,11.3,-5.9,23.45,NNE,32,0.0,0.0,45,0.00,,---,0.00,VWS V14.00,2013-02-25 13:14:00,
2013-02-25 06:19:00,11.1,-6.1,23.45,NNE,32,0.0,0.0,45,0.00,,---,0.00,VWS V14.00,2013-02-25 13:19:00,
2013-02-25 06:25:00,10.9,-6.2,23.45,NNE,32,0.0,0.0,45,0.00,,---,0.00,VWS V14.00,2013-02-25 13:25:00,
2013-02-25 06:30:00,10.8,-6.4,23.45,NNE,32,0.0,0.0,45,0.00,,---,0.00,VWS V14.00,2013-02-25 13:30:00,
2013-02-25 06:35:00,10.6,-6.6,23.45,NNE,32,0.0,0.0,45,0.00,,---,0.00,VWS V14.00,2013-02-25 13:35:00,
2013-02-25 06:40:00,10.2,-6.9,23.45,NNE,32,0.0,0.0,45,0.00,,---,0.00,VWS V14.00,2013-02-25 13:40:00,
2013-02-25 06:45:00,10.0,-7.1,23.45,NNE,32,0.0,0.0,45,0.00,,---,0.00,VWS V14.00,2013-02-25 13:45:00,
2013-02-25 06:50:00,9.9,-7.2,23.45,NNE,32,0.0,0.0,45,0.00,,---,0.00,VWS V14.00,2013-02-25 13:50:00,
2013-02-25 06:55:00,9.7,-7.4,23.45,NNE,32,0.0,0.0,45,0.00,,---,0.00,VWS V14.00,2013-02-25 13:55:00,
2013-02-25 07:00:00,9.5,-7.6,23.45,NNE,32,0.0,0.0,45,0.00,,---,0.00,VWS V14.00,2013-02-25 14:00:00,
2013-02-25 07:06:00,9.3,-7.7,23.45,NNE,32,0.0,0.0,45,0.00,,---,0.00,VWS V14.00,2013-02-25 14:06:00,
2013-02-25 07:11:00,9.1,-7.9,23.45,NNE,32,0.0,0.0,45,0.00,,---,0.00,VWS V14.00,2013-02-25 14:11:00,
2013-02-25 07:16:00,9.1,-7.9,23.45,NNE,32,0.0,0.0,45,0.00,,---,0.00,VWS V14.00,2013-02-25 14:16:00,
2013-02-25 07:21:00,9.1,-7.9,23.45,NNE,32,0.0,0.0,45,0.00,,---,0.00,VWS V14.00,2013-02-25 14:21:00,
2013-02-25 07:26:00,9.1,-7.9,23.45,NNE,32,0.0,0.0,45,0.00,,---,0.00,VWS V14.00,2013-02-25 14:26:00,
2013-02-25 07:32:00,9.1,-7.9,23.45,NNE,32,0.0,0.0,45,0.00,,---,0.00,VWS V14.00,2013-02-25 14:32:00,
2013-02-25 07:37:00,9.3,-7.7,23.45,NNE,32,0.0,0.0,45,0.00,,---,0.00,VWS V14.00,2013-02-25 14:37:00,
2013-02-25 07:42:00,9.7,-7.4,23.48,NNE,32,0.0,0.0,45,0.00,,---,0.00,VWS V14.00,2013-02-25 14:42:00,
2013-02-25 07:47:00,10.0,-7.1,23.48,NNE,32,0.0,0.0,45,0.00,,---,0.00,VWS V14.00,2013-02-25 14:47:00,
2013-02-25 07:52:00,10.4,-6.7,23.48,NNE,32,0.0,0.0,45,0.00,,---,0.00,VWS V14.00,2013-02-25 14:52:00,
2013-02-25 07:57:00,10.8,-6.4,23.45,NNE,32,0.0,0.0,45,0.00,,---,0.00,VWS V14.00,2013-02-25 14:57:00,
2013-02-25 08:02:00,11.3,-5.9,23.45,NNE,32,0.0,0.0,45,0.00,,---,0.00,VWS V14.00,2013-02-25 15:02:00,
2013-02-25 08:07:00,11.8,-5.4,23.45,NNE,32,0.0,0.0,45,0.00,,---,0.00,VWS V14.00,2013-02-25 15:07:00,
2013-02-25 08:12:00,12.6,-4.7,23.45,NNE,32,0.0,0.0,45,0.00,,---,0.00,VWS V14.00,2013-02-25 15:12:00,
2013-02-25 08:17:00,13.3,-4.1,23.45,NNE,32,0.0,0.0,45,0.00,,---,0.00,VWS V14.00,2013-02-25 15:17:00,
2013-02-25 08:22:00,14.0,-3.4,23.45,NNE,32,0.0,0.0,45,0.00,,---,0.00,VWS V14.00,2013-02-25 15:22:00,
2013-02-25 08:27:00,14.9,-3.1,23.45,NNE,32,0.0,0.0,44,0.00,,---,0.00,VWS V14.00,2013-02-25 15:27:00,
2013-02-25 08:32:00,15.6,-2.4,23.45,NNE,32,0.0,0.0,44,0.00,,---,0.00,VWS V14.00,2013-02-25 15:32:00,
2013-02-25 08:37:00,16.7,-1.4,23.45,NNE,32,0.0,0.0,44,0.00,,---,0.00,VWS V14.00,2013-02-25 15:37:00,
2013-02-25 08:42:00,18.0,-0.8,23.45,North,357,0.0,0.0,43,0.00,,---,0.00,VWS V14.00,2013-02-25 15:42:00,
2013-02-25 08:48:00,19.0,0.2,23.45,North,0,3.6,3.6,43,0.00,,---,0.00,VWS V14.00,2013-02-25 15:48:00,
2013-02-25 08:53:00,20.1,1.2,23.45,North,353,0.0,2.7,43,0.00,,---,0.00,VWS V14.00,2013-02-25 15:53:00,
2013-02-25 08:58:00,20.8,1.9,23.45,North,353,0.0,0.0,43,0.00,,---,0.00,VWS V14.00,2013-02-25 15:58:00,
2013-02-25 09:03:00,21.4,2.4,23.45,North,353,0.0,0.0,43,0.00,,---,0.00,VWS V14.00,2013-02-25 16:03:00,
2013-02-25 09:08:00,22.3,3.2,23.45,North,353,0.0,0.0,43,0.00,,---,0.00,VWS V14.00,2013-02-25 16:08:00,
2013-02-25 09:13:00,23.5,3.8,23.45,East,95,2.7,3.1,42,0.00,,---,0.00,VWS V14.00,2013-02-25 16:13:00,
2013-02-25 09:18:00,24.8,5.0,23.45,East,88,3.1,3.6,42,0.00,,---,0.00,VWS V14.00,2013-02-25 16:18:00,
2013-02-25 09:23:00,26.1,6.1,23.45,East,101,3.1,4.0,42,0.00,,---,0.00,VWS V14.00,2013-02-25 16:23:00,
2013-02-25 09:28:00,27.3,6.7,23.45,East,82,2.7,2.7,41,0.00,,---,0.00,VWS V14.00,2013-02-25 16:28:00,
2013-02-25 09:33:00,28.4,7.7,23.45,NNE,19,2.2,3.1,41,0.00,,---,0.00,VWS V14.00,2013-02-25 16:33:00,
2013-02-25 09:38:00,29.3,8.5,23.45,SE,128,4.9,4.9,41,0.00,,---,0.00,VWS V14.00,2013-02-25 16:38:00,
2013-02-25 09:43:00,30.2,9.4,23.48,SSE,151,4.5,4.5,41,0.00,,---,0.00,VWS V14.00,2013-02-25 16:43:00,
2013-02-25 09:48:00,30.9,10.0,23.48,ESE,105,2.2,2.2,41,0.00,,---,0.00,VWS V14.00,2013-02-25 16:48:00,
2013-02-25 09:53:00,31.8,10.8,23.48,NE,37,4.0,6.3,41,0.00,,---,0.00,VWS V14.00,2013-02-25 16:53:00,
2013-02-25 09:58:00,32.4,11.3,23.48,SE,130,5.4,5.4,41,0.00,,---,0.00,VWS V14.00,2013-02-25 16:58:00,
2013-02-25 10:03:00,32.9,11.8,23.48,SSE,151,4.0,4.0,41,0.00,,---,0.00,VWS V14.00,2013-02-25 17:03:00,
2013-02-25 10:08:00,33.4,12.3,23.48,SSE,168,5.8,5.8,41,0.00,,---,0.00,VWS V14.00,2013-02-25 17:08:00,
2013-02-25 10:13:00,34.2,12.4,23.45,SE,132,3.1,7.6,40,0.00,,---,0.00,VWS V14.00,2013-02-25 17:13:00,
2013-02-25 10:19:00,34.7,12.9,23.45,NE,42,4.0,4.9,40,0.00,,---,0.00,VWS V14.00,2013-02-25 17:19:00,
2013-02-25 10:24:00,35.2,13.4,23.45,SSE,158,3.1,4.0,40,0.00,,---,0.00,VWS V14.00,2013-02-25 17:24:00,
2013-02-25 10:29:00,36.3,14.3,23.45,South,170,3.1,4.9,40,0.00,,---,0.00,VWS V14.00,2013-02-25 17:29:00,
2013-02-25 10:34:00,39.2,16.3,23.45,SSE,151,4.0,4.9,39,0.00,,---,0.00,VWS V14.00,2013-02-25 17:34:00,
2013-02-25 10:39:00,40.8,17.8,23.45,SSE,155,2.7,3.6,39,0.00,,---,0.00,VWS V14.00,2013-02-25 17:39:00,
2013-02-25 10:44:00,41.5,18.4,23.45,SSE,154,5.4,5.4,39,0.00,,---,0.00,VWS V14.00,2013-02-25 17:44:00,
2013-02-25 10:49:00,42.4,19.2,23.45,SSW,208,0.0,0.0,39,0.00,,---,0.00,VWS V14.00,2013-02-25 17:49:00,
2013-02-25 10:54:00,43.0,19.1,23.45,SSE,168,2.7,2.7,38,0.00,,---,0.00,VWS V14.00,2013-02-25 17:54:00,
2013-02-25 10:59:00,43.0,19.1,23.48,WSW,252,4.0,4.0,38,0.00,,---,0.00,VWS V14.00,2013-02-25 17:59:00,
2013-02-25 11:04:00,43.2,19.3,23.48,NE,34,4.0,4.0,38,0.00,,---,0.00,VWS V14.00,2013-02-25 18:04:00,
2013-02-25 11:09:00,42.3,19.1,23.48,NE,34,2.2,2.2,39,0.00,,---,0.00,VWS V14.00,2013-02-25 18:09:00,
2013-02-25 11:14:00,42.3,19.1,23.45,SW,233,3.6,3.6,39,0.00,,---,0.00,VWS V14.00,2013-02-25 18:14:00,
2013-02-25 11:19:00,43.7,19.8,23.45,SSW,208,2.2,3.6,38,0.00,,---,0.00,VWS V14.00,2013-02-25 18:19:00,
2013-02-25 11:25:00,45.3,21.2,23.45,ESE,103,2.7,2.7,38,0.00,,---,0.00,VWS V14.00,2013-02-25 18:25:00,
2013-02-25 11:30:00,46.6,21.7,23.45,SSW,194,3.6,3.6,37,0.00,,---,0.00,VWS V14.00,2013-02-25 18:30:00,
2013-02-25 11:35:00,47.8,22.9,23.45,SSW,195,2.2,2.7,37,0.00,,---,0.00,VWS V14.00,2013-02-25 18:35:00,
2013-02-25 11:40:00,48.7,23.6,23.45,SSW,200,2.7,2.7,37,0.00,,---,0.00,VWS V14.00,2013-02-25 18:40:00,
2013-02-25 11:45:00,48.0,23.0,23.45,East,93,0.0,0.0,37,0.00,,---,0.00,VWS V14.00,2013-02-25 18:45:00,
2013-02-25 11:50:00,48.0,23.0,23.45,NW,324,5.4,5.4,37,0.00,,---,0.00,VWS V14.00,2013-02-25 18:50:00,
2013-02-25 11:55:00,46.6,21.7,23.45,SSE,147,4.5,5.4,37,0.00,,---,0.00,VWS V14.00,2013-02-25 18:55:00,
2013-02-25 12:00:00,45.3,21.2,23.45,NNE,30,0.0,0.0,38,0.00,,---,0.00,VWS V14.00,2013-02-25 19:00:00,
2013-02-25 12:05:00,44.6,20.6,23.45,NE,53,2.2,3.6,38,0.00,,---,0.00,VWS V14.00,2013-02-25 19:05:00,
2013-02-25 12:10:00,45.9,21.7,23.45,SSE,147,0.0,3.6,38,0.00,,---,0.00,VWS V14.00,2013-02-25 19:10:00,
2013-02-25 12:15:00,46.6,21.7,23.45,ESE,112,4.0,4.0,37,0.00,,---,0.00,VWS V14.00,2013-02-25 19:15:00,
2013-02-25 12:20:00,46.6,21.7,23.45,East,95,3.1,4.9,37,0.00,,---,0.00,VWS V14.00,2013-02-25 19:20:00,
2013-02-25 12:25:00,46.6,21.7,23.45,ENE,73,3.1,4.0,37,0.00,,---,0.00,VWS V14.00,2013-02-25 19:25:00,
2013-02-25 12:30:00,47.1,22.2,23.42,SSE,155,4.9,4.9,37,0.00,,---,0.00,VWS V14.00,2013-02-25 19:30:00,
2013-02-25 12:35:00,48.9,23.8,23.42,NW,318,5.4,5.8,37,0.00,,---,0.00,VWS V14.00,2013-02-25 19:35:00,
2013-02-25 12:40:00,51.1,25.7,23.42,SSW,196,4.0,4.9,37,0.00,,---,0.00,VWS V14.00,2013-02-25 19:40:00,
2013-02-25 12:45:00,52.7,26.5,23.42,SW,226,3.6,3.6,36,0.00,,---,0.00,VWS V14.00,2013-02-25 19:45:00,
2013-02-25 12:50:00,53.2,27.0,23.42,SSW,203,3.6,3.6,36,0.00,,---,0.00,VWS V14.00,2013-02-25 19:50:00,
2013-02-25 12:56:00,54.1,27.8,23.42,SE,126,0.0,0.0,36,0.00,,---,0.00,VWS V14.00,2013-02-25 19:56:00,
2013-02-25 13:01:00,52.2,26.0,23.42,NE,37,0.0,3.1,36,0.00,,---,0.00,VWS V14.00,2013-02-25 20:01:00,
2013-02-25 13:06:00,50.4,25.1,23.42,SSE,149,0.0,0.0,37,0.00,,---,0.00,VWS V14.00,2013-02-25 20:06:00,
2013-02-25 13:11:00,49.8,24.6,23.42,SE,135,2.2,4.9,37,0.00,,---,0.00,VWS V14.00,2013-02-25 20:11:00,
2013-02-25 13:16:00,50.5,25.2,23.42,SSW,204,5.4,5.4,37,0.00,,---,0.00,VWS V14.00,2013-02-25 20:16:00,
2013-02-25 13:21:00,52.2,26.0,23.42,SW,220,3.1,3.6,36,0.00,,---,0.00,VWS V14.00,2013-02-25 20:21:00,
2013-02-25 13:26:00,53.4,27.1,23.42,South,169,3.1,3.6,36,0.00,,---,0.00,VWS V14.00,2013-02-25 20:26:00,
2013-02-25 13:31:00,53.6,27.3,23.42,WSW,244,4.0,4.0,36,0.00,,---,0.00,VWS V14.00,2013-02-25 20:31:00,
2013-02-25 13:36:00,53.2,27.0,23.42,SSW,206,2.7,3.6,36,0.00,,---,0.00,VWS V14.00,2013-02-25 20:36:00,
2013-02-25 13:41:00,52.5,26.4,23.42,WSW,238,3.1,5.4,36,0.00,,---,0.00,VWS V14.00,2013-02-25 20:41:00,
2013-02-25 13:46:00,51.3,25.9,23.39,South,185,4.0,8.3,37,0.00,,---,0.00,VWS V14.00,2013-02-25 20:46:00,
2013-02-25 13:51:00,50.0,24.8,23.39,SSW,210,3.1,4.0,37,0.00,,---,0.00,VWS V14.00,2013-02-25 20:51:00,
2013-02-25 13:56:00,49.1,24.0,23.39,SE,142,4.0,4.0,37,0.00,,---,0.00,VWS V14.00,2013-02-25 20:56:00,
2013-02-25 14:01:00,48.2,23.2,23.39,SSW,200,3.1,3.6,37,0.00,,---,0.00,VWS V14.00,2013-02-25 21:01:00,
2013-02-25 14:06:00,47.7,22.7,23.39,South,180,3.6,5.4,37,0.00,,---,0.00,VWS V14.00,2013-02-25 21:06:00,
2013-02-25 14:11:00,47.1,22.2,23.39,SW,219,4.0,4.0,37,0.00,,---,0.00,VWS V14.00,2013-02-25 21:11:00,
2013-02-25 14:16:00,46.6,21.7,23.39,South,184,5.8,5.8,37,0.00,,---,0.00,VWS V14.00,2013-02-25 21:16:00,
2013-02-25 14:21:00,46.4,21.6,23.39,SW,219,3.1,4.0,37,0.00,,---,0.00,VWS V14.00,2013-02-25 21:21:00,
2013-02-25 14:26:00,46.2,22.0,23.39,SSW,200,3.6,3.6,38,0.00,,---,0.00,VWS V14.00,2013-02-25 21:26:00,
2013-02-25 14:32:00,46.2,22.0,23.39,NW,325,6.3,6.3,38,0.00,,---,0.00,VWS V14.00,2013-02-25 21:32:00,
2013-02-25 14:37:00,46.0,21.9,23.39,WSW,250,5.8,5.8,38,0.00,,---,0.00,VWS V14.00,2013-02-25 21:37:00,
2013-02-25 14:42:00,46.0,21.9,23.39,South,171,3.6,4.0,38,0.00,,---,0.00,VWS V14.00,2013-02-25 21:42:00,
2013-02-25 14:47:00,45.9,21.7,23.39,SSW,198,5.4,5.4,38,0.00,,---,0.00,VWS V14.00,2013-02-25 21:47:00,
2013-02-25 14:52:00,45.7,21.5,23.39,South,184,7.6,8.7,38,0.00,,---,0.00,VWS V14.00,2013-02-25 21:52:00,
2013-02-25 14:57:00,45.7,21.5,23.39,West,266,3.6,5.8,38,0.00,,---,0.00,VWS V14.00,2013-02-25 21:57:00,
2013-02-25 15:02:00,45.7,21.5,23.39,SW,217,3.6,4.0,38,0.00,,---,0.00,VWS V14.00,2013-02-25 22:02:00,
2013-02-25 15:07:00,45.7,21.5,23.39,SW,230,5.4,6.3,38,0.00,,---,0.00,VWS V14.00,2013-02-25 22:07:00,
2013-02-25 15:12:00,45.9,21.7,23.39,WSW,249,5.4,6.3,38,0.00,,---,0.00,VWS V14.00,2013-02-25 22:12:00,
2013-02-25 15:17:00,45.9,21.7,23.39,WNW,282,4.0,4.0,38,0.00,,---,0.00,VWS V14.00,2013-02-25 22:17:00,
2013-02-25 15:22:00,45.9,21.7,23.39,WSW,244,3.1,7.6,38,0.00,,---,0.00,VWS V14.00,2013-02-25 22:22:00,
2013-02-25 15:27:00,45.7,21.5,23.39,SW,221,3.1,4.0,38,0.00,,---,0.00,VWS V14.00,2013-02-25 22:27:00,
2013-02-25 15:32:00,45.5,21.4,23.39,SW,230,5.4,6.3,38,0.00,,---,0.00,VWS V14.00,2013-02-25 22:32:00,
2013-02-25 15:37:00,45.5,21.4,23.39,WSW,238,8.1,8.7,38,0.00,,---,0.00,VWS V14.00,2013-02-25 22:37:00,
2013-02-25 15:42:00,45.7,21.5,23.39,WNW,297,5.4,5.8,38,0.00,,---,0.00,VWS V14.00,2013-02-25 22:42:00,
2013-02-25 15:47:00,46.0,21.9,23.39,SSW,200,4.0,4.0,38,0.00,,---,0.00,VWS V14.00,2013-02-25 22:47:00,
2013-02-25 15:52:00,46.6,21.7,23.39,South,176,4.0,4.0,37,0.00,,---,0.00,VWS V14.00,2013-02-25 22:52:00,
2013-02-25 15:57:00,47.1,22.2,23.39,West,275,7.2,7.2,37,0.00,,---,0.00,VWS V14.00,2013-02-25 22:57:00,
2013-02-25 16:02:00,46.8,21.9,23.39,South,189,4.0,5.4,37,0.00,,---,0.00,VWS V14.00,2013-02-25 23:02:00,
2013-02-25 16:07:00,46.6,21.7,23.39,WNW,301,4.0,11.0,37,0.00,,---,0.00,VWS V14.00,2013-02-25 23:07:00,
2013-02-25 16:12:00,46.8,21.9,23.39,West,259,3.1,3.6,37,0.00,,---,0.00,VWS V14.00,2013-02-25 23:12:00,
2013-02-25 16:17:00,47.1,22.2,23.39,SW,226,3.1,4.9,37,0.00,,---,0.00,VWS V14.00,2013-02-25 23:17:00,
2013-02-25 16:23:00,47.7,22.7,23.39,SW,231,8.3,8.3,37,0.00,,---,0.00,VWS V14.00,2013-02-25 23:23:00,
2013-02-25 16:28:00,47.8,22.9,23.39,South,177,5.4,5.4,37,0.00,,---,0.00,VWS V14.00,2013-02-25 23:28:00,
2013-02-25 16:33:00,48.4,23.3,23.39,WSW,256,2.7,5.4,37,0.00,,---,0.00,VWS V14.00,2013-02-25 23:33:00,
2013-02-25 16:38:00,48.7,23.6,23.39,WSW,252,3.6,5.8,37,0.00,,---,0.00,VWS V14.00,2013-02-25 23:38:00,
2013-02-25 16:43:00,48.7,23.6,23.39,WSW,250,5.4,7.6,37,0.00,,---,0.00,VWS V14.00,2013-02-25 23:43:00,
2013-02-25 16:48:00,48.7,23.6,23.39,West,266,5.4,5.8,37,0.00,,---,0.00,VWS V14.00,2013-02-25 23:48:00,
2013-02-25 16:53:00,48.2,23.2,23.39,WSW,240,3.1,7.2,37,0.00,,---,0.00,VWS V14.00,2013-02-25 23:53:00,
2013-02-25 16:58:00,48.0,23.0,23.39,WSW,253,8.1,8.1,37,0.00,,---,0.00,VWS V14.00,2013-02-25 23:58:00,
2013-02-25 17:03:00,47.7,22.7,23.39,WSW,238,3.1,3.6,37,0.00,,---,0.00,VWS V14.00,2013-02-26 00:03:00,
2013-02-25 17:08:00,47.3,22.4,23.39,SW,230,3.1,3.1,37,0.00,,---,0.00,VWS V14.00,2013-02-26 00:08:00,
2013-02-25 17:13:00,46.9,22.0,23.36,SW,236,5.8,6.3,37,0.00,,---,0.00,VWS V14.00,2013-02-26 00:13:00,
2013-02-25 17:18:00,46.2,22.0,23.36,WSW,243,3.6,3.6,38,0.00,,---,0.00,VWS V14.00,2013-02-26 00:18:00,
2013-02-25 17:23:00,45.3,21.2,23.36,SW,231,3.6,6.3,38,0.00,,---,0.00,VWS V14.00,2013-02-26 00:23:00,
2013-02-25 17:28:00,44.6,20.6,23.39,WSW,244,6.3,6.3,38,0.00,,---,0.00,VWS V14.00,2013-02-26 00:28:00,
2013-02-25 17:33:00,43.7,19.8,23.39,South,184,3.6,5.4,38,0.00,,---,0.00,VWS V14.00,2013-02-26 00:33:00,
2013-02-25 17:38:00,42.8,19.0,23.39,SSW,200,0.0,2.7,38,0.00,,---,0.00,VWS V14.00,2013-02-26 00:38:00,
2013-02-25 17:43:00,41.7,18.6,23.39,WSW,247,3.6,3.6,39,0.00,,---,0.00,VWS V14.00,2013-02-26 00:43:00,
2013-02-25 17:48:00,41.0,18.0,23.39,SSW,195,2.7,3.6,39,0.00,,---,0.00,VWS V14.00,2013-02-26 00:48:00,
2013-02-25 17:53:00,39.9,17.0,23.39,SSW,212,2.2,2.2,39,0.00,,---,0.00,VWS V14.00,2013-02-26 00:53:00,
2013-02-25 17:59:00,39.0,16.2,23.36,SSW,212,0.0,0.0,39,0.00,,---,0.00,VWS V14.00,2013-02-26 00:59:00,
2013-02-25 18:04:00,38.5,15.7,23.36,SSW,212,0.0,0.0,39,0.00,,---,0.00,VWS V14.00,2013-02-26 01:04:00,
2013-02-25 18:09:00,37.8,15.0,23.36,SSW,196,0.0,0.0,39,0.00,,---,0.00,VWS V14.00,2013-02-26 01:09:00,
2013-02-25 18:14:00,37.2,15.1,23.39,SW,218,0.0,0.0,40,0.00,,---,0.00,VWS V14.00,2013-02-26 01:14:00,
2013-02-25 18:19:00,36.7,14.6,23.39,SW,229,0.0,4.0,40,0.00,,---,0.00,VWS V14.00,2013-02-26 01:19:00,
2013-02-25 18:24:00,36.1,14.2,23.39,SW,230,0.0,0.0,40,0.00,,---,0.00,VWS V14.00,2013-02-26 01:24:00,
2013-02-25 18:29:00,35.6,13.7,23.39,SW,230,0.0,0.0,40,0.00,,---,0.00,VWS V14.00,2013-02-26 01:29:00,
2013-02-25 18:34:00,35.1,13.2,23.39,SW,230,0.0,0.0,40,0.00,,---,0.00,VWS V14.00,2013-02-26 01:34:00,
2013-02-25 18:39:00,34.5,12.7,23.39,SW,230,0.0,0.0,40,0.00,,---,0.00,VWS V14.00,2013-02-26 01:39:00,
2013-02-25 18:44:00,34.0,12.2,23.39,SW,230,0.0,0.0,40,0.00,,---,0.00,VWS V14.00,2013-02-26 01:44:00,
2013-02-25 18:49:00,33.4,12.3,23.39,SW,230,0.0,0.0,41,0.00,,---,0.00,VWS V14.00,2013-02-26 01:49:00,
2013-02-25 18:54:00,32.7,11.6,23.39,SW,230,0.0,0.0,41,0.00,,---,0.00,VWS V14.00,2013-02-26 01:54:00,
2013-02-25 18:59:00,32.2,11.1,23.39,SW,230,0.0,0.0,41,0.00,,---,0.00,VWS V14.00,2013-02-26 01:59:00,
2013-02-25 19:04:00,31.6,10.6,23.39,SW,230,0.0,0.0,41,0.00,,---,0.00,VWS V14.00,2013-02-26 02:04:00,
2013-02-25 19:09:00,31.1,10.2,23.39,SW,230,0.0,0.0,41,0.00,,---,0.00,VWS V14.00,2013-02-26 02:09:00,
2013-02-25 19:14:00,30.6,9.7,23.39,SW,230,0.0,0.0,41,0.00,,---,0.00,VWS V14.00,2013-02-26 02:14:00,
2013-02-25 19:19:00,30.0,9.2,23.39,SW,230,0.0,0.0,41,0.00,,---,0.00,VWS V14.00,2013-02-26 02:19:00,
2013-02-25 19:25:00,29.7,8.9,23.39,SW,230,0.0,0.0,41,0.00,,---,0.00,VWS V14.00,2013-02-26 02:25:00,
2013-02-25 19:30:00,29.5,8.7,23.39,SW,230,0.0,0.0,41,0.00,,---,0.00,VWS V14.00,2013-02-26 02:30:00,
2013-02-25 19:35:00,28.9,8.2,23.39,SW,230,0.0,0.0,41,0.00,,---,0.00,VWS V14.00,2013-02-26 02:35:00,
2013-02-25 19:40:00,28.8,8.0,23.39,SW,230,0.0,0.0,41,0.00,,---,0.00,VWS V14.00,2013-02-26 02:40:00,
2013-02-25 19:45:00,28.4,7.7,23.39,SW,230,0.0,0.0,41,0.00,,---,0.00,VWS V14.00,2013-02-26 02:45:00,
2013-02-25 19:50:00,28.2,7.6,23.39,SW,231,0.0,0.0,41,0.00,,---,0.00,VWS V14.00,2013-02-26 02:50:00,
2013-02-25 19:55:00,27.9,7.2,23.39,SW,231,0.0,0.0,41,0.00,,---,0.00,VWS V14.00,2013-02-26 02:55:00,
2013-02-25 20:00:00,27.7,7.1,23.39,SW,231,0.0,0.0,41,0.00,,---,0.00,VWS V14.00,2013-02-26 03:00:00,
2013-02-25 20:05:00,27.7,7.1,23.39,NW,321,2.2,2.2,41,0.00,,---,0.00,VWS V14.00,2013-02-26 03:05:00,
2013-02-25 20:10:00,27.5,6.9,23.39,WNW,302,0.0,0.0,41,0.00,,---,0.00,VWS V14.00,2013-02-26 03:10:00,
2013-02-25 20:15:00,27.5,6.9,23.39,WNW,293,0.0,0.0,41,0.00,,---,0.00,VWS V14.00,2013-02-26 03:15:00,
2013-02-25 20:20:00,27.3,6.7,23.39,WNW,293,0.0,0.0,41,0.00,,---,0.00,VWS V14.00,2013-02-26 03:20:00,
2013-02-25 20:25:00,27.0,6.4,23.39,WNW,293,0.0,0.0,41,0.00,,---,0.00,VWS V14.00,2013-02-26 03:25:00,
2013-02-25 20:30:00,27.0,6.4,23.39,WNW,293,0.0,0.0,41,0.00,,---,0.00,VWS V14.00,2013-02-26 03:30:00,
2013-02-25 20:36:00,26.8,6.2,23.39,WNW,293,0.0,0.0,41,0.00,,---,0.00,VWS V14.00,2013-02-26 03:36:00,
2013-02-25 20:41:00,26.6,6.6,23.39,WNW,293,0.0,0.0,42,0.00,,---,0.00,VWS V14.00,2013-02-26 03:41:00,
2013-02-25 20:46:00,26.2,6.3,23.42,WNW,293,0.0,0.0,42,0.00,,---,0.00,VWS V14.00,2013-02-26 03:46:00,
2013-02-25 20:51:00,26.1,6.1,23.42,WNW,293,0.0,0.0,42,0.00,,---,0.00,VWS V14.00,2013-02-26 03:51:00,
2013-02-25 20:56:00,25.9,6.0,23.42,WNW,293,0.0,0.0,42,0.00,,---,0.00,VWS V14.00,2013-02-26 03:56:00,
2013-02-25 21:01:00,25.5,5.6,23.42,WNW,293,0.0,0.0,42,0.00,,---,0.00,VWS V14.00,2013-02-26 04:01:00,
2013-02-25 21:06:00,25.3,5.5,23.42,WNW,293,0.0,0.0,42,0.00,,---,0.00,VWS V14.00,2013-02-26 04:06:00,
2013-02-25 21:11:00,25.2,5.3,23.39,WNW,293,0.0,0.0,42,0.00,,---,0.00,VWS V14.00,2013-02-26 04:11:00,
2013-02-25 21:16:00,25.0,5.1,23.39,WNW,293,0.0,0.0,42,0.00,,---,0.00,VWS V14.00,2013-02-26 04:16:00,
2013-02-25 21:21:00,24.6,4.8,23.39,WNW,293,0.0,0.0,42,0.00,,---,0.00,VWS V14.00,2013-02-26 04:21:00,
2013-02-25 21:26:00,24.4,4.7,23.39,WNW,293,0.0,0.0,42,0.00,,---,0.00,VWS V14.00,2013-02-26 04:26:00,
2013-02-25 21:32:00,24.3,4.5,23.39,WNW,293,0.0,0.0,42,0.00,,---,0.00,VWS V14.00,2013-02-26 04:32:00,
2013-02-25 21:37:00,24.1,4.3,23.39,WNW,293,0.0,0.0,42,0.00,,---,0.00,VWS V14.00,2013-02-26 04:37:00,
2013-02-25 21:42:00,23.9,4.2,23.39,WNW,293,0.0,0.0,42,0.00,,---,0.00,VWS V14.00,2013-02-26 04:42:00,
2013-02-25 21:47:00,23.9,4.2,23.39,WNW,294,0.0,0.0,42,0.00,,---,0.00,VWS V14.00,2013-02-26 04:47:00,
2013-02-25 21:52:00,23.7,4.0,23.39,WNW,294,0.0,0.0,42,0.00,,---,0.00,VWS V14.00,2013-02-26 04:52:00,
2013-02-25 21:57:00,23.5,3.8,23.39,WNW,294,0.0,0.0,42,0.00,,---,0.00,VWS V14.00,2013-02-26 04:57:00,
2013-02-25 22:00:00,23.5,3.8,23.39,WNW,294,0.0,0.0,42,0.00,,---,0.00,VWS V14.00,2013-02-26 05:00:00,
2013-02-25 22:01:00,23.5,3.8,23.39,WNW,294,0.0,0.0,42,0.00,,---,0.00,VWS V14.00,2013-02-26 05:01:00,
2013-02-25 22:06:00,23.4,3.7,23.39,WNW,294,0.0,0.0,42,0.00,,---,0.00,VWS V14.00,2013-02-26 05:06:00,
2013-02-25 22:11:00,23.2,3.5,23.39,WNW,294,0.0,0.0,42,0.00,,---,0.00,VWS V14.00,2013-02-26 05:11:00,
2013-02-25 22:16:00,23.0,3.8,23.39,WNW,294,0.0,0.0,43,0.00,,---,0.00,VWS V14.00,2013-02-26 05:16:00,
2013-02-25 22:21:00,22.8,3.7,23.39,WNW,294,0.0,0.0,43,0.00,,---,0.00,VWS V14.00,2013-02-26 05:21:00,
2013-02-25 22:26:00,22.5,3.4,23.39,WNW,294,0.0,0.0,43,0.00,,---,0.00,VWS V14.00,2013-02-26 05:26:00,
2013-02-25 22:31:00,22.3,3.2,23.39,WNW,294,0.0,0.0,43,0.00,,---,0.00,VWS V14.00,2013-02-26 05:31:00,
2013-02-25 22:36:00,22.3,3.2,23.39,WNW,294,0.0,0.0,43,0.00,,---,0.00,VWS V14.00,2013-02-26 05:36:00,
2013-02-25 22:41:00,22.1,3.0,23.39,WNW,294,0.0,0.0,43,0.00,,---,0.00,VWS V14.00,2013-02-26 05:41:00,
2013-02-25 22:46:00,21.9,2.9,23.39,WNW,294,0.0,0.0,43,0.00,,---,0.00,VWS V14.00,2013-02-26 05:46:00,
2013-02-25 22:51:00,21.9,2.9,23.39,WNW,294,0.0,0.0,43,0.00,,---,0.00,VWS V14.00,2013-02-26 05:51:00,
2013-02-25 22:56:00,21.6,2.5,23.39,WNW,294,0.0,0.0,43,0.00,,---,0.00,VWS V14.00,2013-02-26 05:56:00,
2013-02-25 23:01:00,21.4,2.4,23.39,WNW,294,0.0,0.0,43,0.00,,---,0.00,VWS V14.00,2013-02-26 06:01:00,
2013-02-25 23:07:00,21.2,2.2,23.39,WNW,294,0.0,0.0,43,0.00,,---,0.00,VWS V14.00,2013-02-26 06:07:00,
2013-02-25 23:12:00,21.2,2.2,23.39,WNW,294,0.0,0.0,43,0.00,,---,0.00,VWS V14.00,2013-02-26 06:12:00,
2013-02-25 23:17:00,21.0,2.0,23.39,WNW,294,0.0,0.0,43,0.00,,---,0.00,VWS V14.00,2013-02-26 06:17:00,
2013-02-25 23:22:00,20.7,1.7,23.39,WNW,294,0.0,0.0,43,0.00,,---,0.00,VWS V14.00,2013-02-26 06:22:00,
2013-02-25 23:27:00,20.5,1.5,23.39,WNW,294,0.0,0.0,43,0.00,,---,0.00,VWS V14.00,2013-02-26 06:27:00,
2013-02-25 23:32:00,20.3,1.4,23.39,WNW,294,0.0,0.0,43,0.00,,---,0.00,VWS V14.00,2013-02-26 06:32:00,
2013-02-25 23:37:00,20.3,1.4,23.39,WNW,294,0.0,0.0,43,0.00,,---,0.00,VWS V14.00,2013-02-26 06:37:00,
2013-02-25 23:42:00,20.1,1.2,23.36,WNW,294,0.0,0.0,43,0.00,,---,0.00,VWS V14.00,2013-02-26 06:42:00,
2013-02-25 23:47:00,19.9,1.1,23.36,WNW,294,0.0,0.0,43,0.00,,---,0.00,VWS V14.00,2013-02-26 06:47:00,
2013-02-25 23:52:00,19.8,0.9,23.36,WNW,294,0.0,0.0,43,0.00,,---,0.00,VWS V14.00,2013-02-26 06:52:00,
2013-02-25 23:57:00,19.6,0.7,23.36,WNW,294,0.0,0.0,43,0.00,,---,0.00,VWS V14.00,2013-02-26 06:57:00,